Find Starlink 5062

NORAD ID: 55637 Int'l Des: 2023-021 Owner: SPXS Country: US Constellation: starlink operational
LEOCIRCULAR

現在のビュー

3D地球を読み込み中...

About Starlink 5062

Starlink 5062 (NORAD 55637) is a starlink constellation satellite (v1.5) launched Feb 17, 2023 by SPXS of US. It operates in LEO, CIRCULAR orbit with a mass of 305.00 kg.

Starlink 5062について

説明を読み込み中...

次回通過

Passes for default location (London). Set your location on the main map for personalized predictions.

高度履歴

Loading altitude history...

軌道要素

1 55637U 23021K 26168.72955676 .00000137 00000-0 19286-4 0 9995
2 55637 69.9996 292.3294 0003200 266.8862 93.1931 14.98330787183772
Epoch: Jun 17, 2026 • Age: 14 hours

現在のステータス

高度 574.3 km
速度 7.57 km/s
衛星直下点 5.00°N, 93.24°W
打ち上げ日 Feb 17, 2023
運用期間 3.3 years
タイプ internet

技術仕様

分類 Payload
質量 305.00 kg
乾燥質量 290.00 kg
総質量 305.00 kg
長さ 0.20 m
直径 2.80 m
スパン 9.00 m
形状 Box + pan
製造者 SPXS
バスタイプ Starlink
フェーズステータス In Orbit
所有者/国 SPXS/US

Most Searched